Location: Nairn
(57.5833°N, 3.8667°W)
Time: 18:03:17
(UTC+00:00)

Cosmos 1626 - Pass Details

Date: 07 August 2020
Orbit: 491 x 494 km, 82.5° (Epoch: 23 September)

Event Time Altitude Azimuth Distance (km) Brightness Sun altitude
Rises 02:29:24 0° 345° (NNW) 2,597 6.5 -11.5°
Reaches altitude 10° 02:31:32 10° 344° (NNW) 1,710 5.5 -11.3°
Maximum altitude 02:35:15 73° 261° (W) 526 2.1 -11.1°
Enters shadow 02:38:55 10° 176° (S) 1,680 4.3 -10.8°
